Location: Acts Church of Fort Worth
(32.6786°N, 97.2668°W)
Time: 23:24:45
(UTC+00:00)

Cosmos 2360 - Pass Details

Date: 18 January 2026
Orbit: 847 x 855 km, 70.7° (Epoch: 13 February)

Event Time Altitude Azimuth Distance (km) Brightness Sun altitude
Rises 01:06:55 0° 343° (NNW) 3,423 7.4 -16.5°
Reaches altitude 10° 01:09:24 10° 346° (NNW) 2,483 6.6 -17.0°
Maximum altitude 01:15:04 64° 68° (ENE) 937 4.1 -18.2°
Drops below altitude 10° 01:20:40 10° 149° (SSE) 2,465 6.4 -19.3°
Sets 01:23:08 0° 153° (SSE) 3,396 7.2 -19.8°
